Regional Weather Roundup
Issued by NWS

Home | Current Version | Previous Version | Graphics & Text | Print | Product List | Glossary Off
Versions: 1 2 3 4 5 6 7 8 9 10 11 12 13 14 15 16 17 18 19 20 21 22 23 24 25 26 27 28 29 30 31 32 33 34 35 36 37 38 39 40 41 42 43 44 45 46 47 48 49 50

000
ASUS45 KCYS 231710
RWRWY

WYOMING REGIONAL WEATHER ROUNDUP
NATIONAL WEATHER SERVICE CHEYENNE WY
1100 AM MDT SAT MAY 23 2015

NOTE:  "FAIR" INDICATES FEW OR NO CLOUDS BELOW 12,000 FEET
WITH NO SIGNIFICANT WEATHER AND/OR OBSTRUCTIONS TO VISIBILITY.

WYZ001-231800-
YELLOWSTONE NATIONAL PARK

CITY           SKY/WX    TMP DP  RH WIND       PRES   REMARKS
LK YELLOWSTONE   N/A     51  36  56 VRB6      30.02F
W YELLOWSTONE  NOT AVBL

$$
WYZ002>013-054>058-071-098>099-231800-
NORTHERN WYOMING

CITY           SKY/WX    TMP DP  RH WIND       PRES   REMARKS
JACKSON        CLOUDY    50  46  87 CALM      29.96F
CODY           CLOUDY    48  46  93 N15       29.99R
GREYBULL       LGT RAIN  56  50  80 N5        29.93S
WORLAND        CLOUDY    55  50  83 NW7       29.94S
SHERIDAN       CLOUDY    50  46  86 NW7       30.00S
BUFFALO        CLOUDY    50  46  86 E5        30.01S
GILLETTE       CLOUDY    51  44  77 SE9       30.01S
HULETT         CLOUDY    52  45  76 NW7       30.04S
NEWCASTLE      CLOUDY    50  43  76 S17       30.04S

$$
WYZ014>020-022>026-101>103-231800-
CENTRAL WYOMING

CITY           SKY/WX    TMP DP  RH WIND       PRES   REMARKS
BIG PINEY      CLOUDY    45  40  82 VRB3      30.00S
PINEDALE       CLOUDY    45  37  76 S5        30.01S
DUBOIS         RAIN      36  34  93 SE3       29.98F
LANDER         PTSUNNY   54  44  69 NE8       29.95R
RIVERTON       FAIR      54  45  71 W7        29.96F
CASPER         FAIR      50  44  80 E3        29.99F
DOUGLAS        PTSUNNY   54  46  74 E14       30.01S

$$
WYZ021-027>030-104>119-231800-
SOUTHERN WYOMING

CITY           SKY/WX    TMP DP  RH WIND       PRES   REMARKS
EVANSTON       FAIR      49  38  65 CALM      29.96F
KEMMERER       PTSUNNY   48  37  66 CALM      29.99S
FORT BRIDGER   MOSUNNY   50  43  76 NE7       30.00F
ROCK SPRINGS   FAIR      53  39  59 VRB3      29.98F
DIXON          FAIR      56  40  55 SW10      30.00F
RAWLINS        FAIR      55  39  54 E8        29.99F
SARATOGA       PTSUNNY   54  36  50 SE8       29.99S
LARAMIE        FAIR      52  43  71 S15       30.00S
CHEYENNE       CLOUDY    52  44  74 SW12      30.01F
TORRINGTON     PTSUNNY   57  50  77 SE12      30.00F
PINE BLUFFS    CLOUDY    54  46  76 CALM      30.02F

$$



USA.gov is the U.S. government's official web portal to all federal, state and local government web resources and services.